Tracking 19476 objects as of 17-Jan-2019
HD Live streaming from Space Station
objects crossing your sky now

OPS 6983 (DMSP 5C F1)

Track OPS 6983 (DMSP 5C F1) now!
10-day predictions
OPS 6983 (DMSP 5C F1) is classified as:


NORAD ID: 7411
Int'l Code: 1974-063A
Perigee: 775.9 km
Apogee: 836.3 km
Inclination: 98.7 °
Period: 100.9 minutes
Semi major axis: 7177 km
RCS: 1.494 m2 (large)
Launch date: August 9, 1974
Source: United States (US)
Launch site: AIR FORCE WESTERN TEST RANGE (AFWTR)
aabbcc
Your satellite tracking list
Your tracking list is empty




NASA's NSSDC Master Catalog

Two Line Element Set (TLE):
1  7411U 74063A   19017.44022380  .00000031  00000-0  30266-4 0  9999
2  7411  98.7192 213.3674 0042043  17.6381 342.6248 14.27842775308069
Source of the keplerian elements: AFSPC